Regional Weather Roundup
Issued by NWS

Home | Current Version | Previous Version | Graphics & Text | Print | Product List | Glossary On
Versions: 1 2 3 4 5 6 7 8 9 10 11 12 13 14 15 16 17 18 19 20 21 22 23 24 25 26 27 28 29 30 31 32 33 34 35 36 37 38 39 40 41 42 43 44 45 46 47 48 49 50
000
ASUS43 KFSD 010302
RWRSD

WEATHER ROUNDUP FOR SOUTH DAKOTA
NATIONAL WEATHER SERVICE SIOUX FALLS SD
900 PM CST SAT FEB 28 2015

NOTE: "FAIR" INDICATES FEW OR NO CLOUDS BELOW 12,000 FEET WITH NO
SIGNIFICANT WEATHER AND/OR OBSTRUCTIONS TO VISIBILITY.


SDZ001>005-009-010-012>017-010400-
NORTHWEST AND NORTH CENTRAL SOUTH DAKOTA

CITY           SKY/WX    TMP DP  RH WIND       PRES   REMARKS
BUFFALO          N/A     11   5  77 W8        30.07R WCI  -1
FAITH            N/A     14   4  64 W5        30.17R WCI   6
MOBRIDGE       PTCLDY     7   2  80 CALM      30.17S
$$

SDZ012>016-024>037-041>051-057-063-072>074-010400-
SOUTHWEST AND SOUTH CENTRAL SOUTH DAKOTA

CITY           SKY/WX    TMP DP  RH WIND       PRES   REMARKS
RAPID CTY ARPT CLOUDY    16   9  74 N12       30.15R WCI   3
PIERRE         CLEAR     14   7  73 NW9       30.22R WCI   2
CUSTER         MOCLDY     9   5  84 CALM      29.98S
ELLSWORTH AFB  MOCLDY    16   8  71 N10       30.15R WCI   4
PHILIP         PTCLDY    11   0  61 CALM      30.22R
PINE RIDGE     MOCLDY    16   8  71 E5        30.13R WCI   9
WINNER         FAIR      19  -2  39 NW7       30.21R WCI  10
$$

SDZ004>011-016>023-039-040-010400-
NORTHEAST SOUTH DAKOTA

CITY           SKY/WX    TMP DP  RH WIND       PRES   REMARKS
ABERDEEN       PTCLDY    17   8  67 NW10      30.21R WCI   5
WATERTOWN      CLOUDY    20  13  74 SW7       30.13S WCI  11
SISSETON         N/A     23  17  78 NW8       30.17S WCI  14
$$

SDZ017-020-022-023-036>040-048>070-010400-
SOUTHEAST SOUTH DAKOTA

CITY           SKY/WX    TMP DP  RH WIND       PRES   REMARKS
SIOUX FALLS    MOCLDY    20  12  71 S15       30.21S WCI   6
HURON          CLEAR     13  10  88 NW10      30.21R WCI   0
MITCHELL       CLEAR     20  13  74 NW8       30.22R WCI  10
YANKTON        CLEAR     21  10  63 S15       30.25R WCI   8
$$

ABBREVIATIONS USED IN REMARKS
   TC - TEMPERATURE IN CELSIUS
  WCI - WIND CHILL INDEX
   HX - HEAT INDEX
  VSB - VISIBILITY




USA.gov is the U.S. government's official web portal to all federal, state and local government web resources and services.